[[{"header":{"parameterUnit":"m.s-1","parameterCategory":1,"la1":30.2991,"la2":30.254,"lo1":-89.0895,"lo2":-89.0444,"dy":0.0017,"dx":0.0017,"nx":28,"ny":28,"refTime":"2023-11-12T03:00:00:Z","depth":0,"parameterNumber":2,"parameterNumberName":"U-component_of_WINDS"},"data":[0,0,0,0,0,0,0,0,0,0,0,0,0,0,0,0,0,0,0,0,0,0,0,0,0,0,0,0,0,0,0,0,0,0,0,0,0,0,0,0,0,0,0,0,0,0,0,0,0,0,0,0,0,0,0,0,0,0,-3.3778,-3.3779,0,-3.3822,-3.3823,-3.3823,-3.3755,-3.3752,-3.375,-3.3748,-3.3794,-3.3798,-3.3801,0,0,0,0,0,0,0,0,0,0,0,0,0,-3.3636,-3.3639,-3.3778,-3.3779,-3.3779,-3.3822,-3.3823,-3.3823,-3.3755,-3.3752,-3.3749,-3.3747,-3.3793,-3.3797,-3.3801,0,0,0,0,0,0,0,0,0,0,0,0,0,-3.3691,-3.364,-3.3778,-3.375,-3.3748,-3.3822,-3.3823,-3.3823,-3.3756,-3.3752,-3.3749,-3.3745,-3.3792,-3.3797,-3.3802,-3.3905,0,0,-3.3818,-3.382,0,0,0,0,0,0,0,0,-3.3688,-3.3696,-3.3754,-3.3752,-3.375,-3.3779,-3.379,-3.3851,-3.3757,-3.3753,-3.3748,-3.3744,-3.3792,-3.3797,-3.3813,-3.3907,-3.3909,-3.3818,-3.3821,-3.3824,-3.3825,0,0,0,0,0,0,0,-3.3684,-3.3694,-3.3796,-3.3755,-3.3753,-3.3736,-3.374,-3.3801,-3.3792,-3.3753,-3.3748,-3.3754,-3.3791,-3.3808,-3.3814,-3.391,-3.3818,-3.3823,-3.3826,-3.3828,-3.4091,-3.4095,0,0,0,0,0,0,-3.3684,-3.3691,-3.3794,-3.3797,-3.371,-3.3742,-3.3746,-3.3774,-3.3791,-3.379,-3.3757,-3.3751,-3.3801,-3.3808,-3.3815,-3.3938,-3.3823,-3.3828,-3.3831,-3.4087,-3.4092,-3.4096,0,0,0,0,0,0,-3.3681,-3.3693,-3.3792,-3.3743,-3.3754,-3.3748,-3.378,-3.3776,-3.3794,-3.3794,-3.3793,-3.3777,-3.3799,-3.3808,-3.3883,-3.3939,-3.3831,-3.3835,-3.4083,-3.4089,-3.4094,-3.4184,0,0,0,0,0,0,-3.3677,-3.3693,-3.3732,-3.3744,-3.3757,-3.386,-3.3783,-3.378,-3.3803,-3.3795,-3.3813,-3.3812,-3.3797,-3.3876,-3.3888,-3.3944,-3.3839,-3.4078,-3.4085,-3.4092,-3.4176,-3.4193,-3.4206,0,0,0,0,0,-3.3672,-3.3756,-3.3734,-3.3747,-3.3806,-3.3863,-3.387,-3.3851,-3.3808,-3.3847,-3.3847,-3.3811,-3.393,-3.3884,-3.3898,-3.3956,-3.4074,-3.4083,-3.4092,-3.417,-3.4189,-3.4206,0,0,0,0,0,0,-3.3751,-3.3757,-3.3733,-3.3823,-3.3843,-3.3851,-3.3901,-3.3872,-3.3905,-3.3897,-3.3871,-3.3875,-3.3957,-3.3963,-3.3912,-3.4057,-3.3995,-3.4007,-3.405,-3.4068,-3.4083,-3.4081,-3.3844,0,0,0,0,0,-3.3778,-3.3824,-3.3827,-3.3906,-3.3917,-3.3907,-3.3932,-3.3915,-3.3934,-3.3943,-3.3948,-3.397,-3.4011,-3.404,-3.4078,-3.4176,-3.418,-3.4223,-3.4238,-3.425,-3.4261,-3.4315,-3.4334,-3.4125,-3.4125,-3.4125,0,0,-3.3836,-3.3845,-3.3876,-3.3922,-3.3935,-3.3984,-3.3915,-3.3969,-3.4005,-3.3951,-3.4023,-3.4028,-3.4049,-3.4137,-3.4176,-3.4145,-3.4319,-3.4261,-3.4271,-3.4276,-3.4326,-3.4345,-3.4363,-3.4131,-3.413,-3.4129,0,0,-3.3967,-3.3978,-3.4045,-3.406,-3.4081,-3.4074,-3.409,-3.4103,-3.4104,-3.4175,-3.4136,-3.4178,-3.4251,-3.4269,-3.4287,-3.4424,-3.4393,-3.4437,-3.4516,-3.4568,-3.4585,-3.4599,-3.465,-3.4668,-3.4447,-3.4448,-3.4448,0,-3.4037,-3.4108,-3.4084,-3.4141,-3.4163,-3.4115,-3.4184,-3.4199,-3.4232,-3.4249,-3.4213,-3.4304,-3.4315,-3.4406,-3.444,-3.4456,-3.4474,-3.4436,-3.4584,-3.4599,-3.4612,-3.466,-3.4679,-3.4453,-3.4452,-3.4452,-3.4451,0,-3.4193,-3.4243,-3.4295,-3.4328,-3.4356,-3.4418,-3.4404,-3.4435,-3.4415,-3.4411,-3.4485,-3.4496,-3.4537,-3.4557,-3.4538,-3.4646,-3.4627,-3.4588,-3.4526,-3.4638,-3.4682,-3.47,-3.4461,-3.4459,-3.4457,-3.4456,0,0,-3.4377,-3.4395,-3.4414,-3.4429,-3.4448,-3.4487,-3.4547,-3.4586,-3.4614,-3.4638,-3.4689,-3.4751,-3.4716,-3.4737,-3.4719,-3.4765,-3.4875,-3.4721,-3.4721,-3.4751,-3.4996,-3.5026,-3.5048,-3.4853,-3.4856,-3.4859,-3.4995,0,-3.4509,-3.4613,-3.4593,-3.4695,-3.4742,-3.4696,-3.4749,-3.4767,-3.4765,-3.4805,-3.4802,-3.4848,-3.4796,-3.4809,-3.4852,-3.4852,-3.4924,-3.4842,-3.4902,-3.4904,-3.49,-3.5071,-3.5103,-3.5231,-3.5012,-3.5015,-3.5017,0,-3.4677,-3.4707,-3.4814,-3.4827,-3.4845,-3.4893,-3.4928,-3.4965,-3.4985,-3.498,-3.5004,-3.4977,-3.5038,-3.4974,-3.5058,-3.5002,-3.5025,-3.5029,-3.5033,-3.504,-3.4969,-3.5085,-3.5271,-3.5291,-3.5044,-3.5041,-3.504,0,-3.4803,-3.487,-3.4943,-3.4956,-3.4972,-3.5007,-3.5015,-3.5031,-3.5056,-3.5086,-3.5102,-3.5138,-3.5159,-3.5188,-3.5173,-3.5127,-3.5261,-3.5194,-3.526,-3.5261,-3.5292,-3.5291,-3.5487,-3.5303,-3.5303,-3.5302,-3.5302,0,-3.4954,-3.5022,-3.5,-3.5045,-3.512,-3.5095,-3.517,-3.5172,-3.5187,-3.5232,-3.5194,-3.5238,-3.5213,-3.5255,-3.5243,-3.5316,-3.5325,-3.5324,-3.532,-3.5329,-3.5329,-3.5345,-3.5337,-3.5307,-3.5306,-3.5305,-3.5304,0,-3.5108,-3.5096,-3.5173,-3.5181,-3.5184,-3.5239,-3.5246,-3.5289,-3.5283,-3.5341,-3.5353,-3.5345,-3.5393,-3.5379,-3.5431,-3.5423,-3.5515,-3.5499,-3.5509,-3.5506,-3.5573,-3.5567,-3.5788,-3.5817,-3.5612,-3.5614,-3.5616,0,-3.5206,-3.5258,-3.5271,-3.5298,-3.5309,-3.5354,-3.5379,-3.5356,-3.5384,-3.541,-3.545,-3.5493,-3.5527,-3.5605,-3.5604,-3.5643,-3.5629,-3.5704,-3.5635,-3.5642,-3.5633,-3.5631,-3.5637,-3.5718,-3.5721,-3.5723,-3.5724,0,-3.5383,-3.5374,-3.5412,-3.5448,-3.5479,-3.5506,-3.5529,-3.5554,-3.5533,-3.5566,-3.5613,-3.564,-3.5692,-3.5736,-3.5772,-3.578,-3.575,-3.5745,-3.5763,-3.5774,-3.5778,-3.5779,-3.5549,-3.5741,-3.5739,-3.5738,-3.5737,-3.5737,-3.5514,-3.5558,-3.5574,-3.5617,-3.5632,-3.5655,-3.5696,-3.5695,-3.5734,-3.5775,-3.5758,-3.5813,-3.5831,-3.5876,-3.5889,-3.5932,-3.5904,-3.5929,-3.5936,-3.5943,-3.5953,-3.5769,-3.5938,-3.5938,-3.5937,-3.5937,-3.5936,0,-3.569,-3.5698,-3.5738,-3.5772,-3.5807,-3.5773,-3.5797,-3.5828,-3.5877,-3.5896,-3.593,-3.5985,-3.6027,-3.6029,-3.607,-3.6104,-3.6091,-3.6115,-3.6114,-3.6117,-3.5974,-3.5956,-3.6125,-3.6125,-3.6125,-3.6125,-3.6125,-3.6125,-3.5787,-3.5859,-3.5852,-3.5932,-3.5939,-3.5993,-3.601,-3.6031,-3.6046,-3.6109,-3.6144,-3.6145,-3.6157,-3.6198,-3.6236,-3.6235,-3.6253,-3.6283,-3.6278,-3.6145,-3.6127,-3.6109,-3.6092,-3.6287,-3.6287,-3.6417,-3.6418,-3.6419]},{"header":{"parameterUnit":"m.s-1","parameterCategory":1,"la1":30.2991,"la2":30.254,"lo1":-89.0895,"lo2":-89.0444,"dy":0.0017,"dx":0.0017,"nx":28,"ny":28,"refTime":"2023-11-12T03:00:00:Z","depth":0,"parameterNumber":3,"parameterNumberName":"V-component_of_WINDS"},"data":[0,0,0,0,0,0,0,0,0,0,0,0,0,0,0,0,0,0,0,0,0,0,0,0,0,0,0,0,0,0,0,0,0,0,0,0,0,0,0,0,0,0,0,0,0,0,0,0,0,0,0,0,0,0,0,0,0,0,-3.7308,-3.7308,0,-3.7343,-3.7344,-3.7344,-3.732,-3.7319,-3.7318,-3.7317,-3.7351,-3.7353,-3.7355,0,0,0,0,0,0,0,0,0,0,0,0,0,-3.7216,-3.7218,-3.7308,-3.7308,-3.7309,-3.7343,-3.7344,-3.7344,-3.732,-3.7319,-3.7318,-3.7317,-3.735,-3.7353,-3.7355,0,0,0,0,0,0,0,0,0,0,0,0,0,-3.7254,-3.7218,-3.7308,-3.7301,-3.7301,-3.7343,-3.7344,-3.7345,-3.7321,-3.7319,-3.7317,-3.7316,-3.735,-3.7352,-3.7355,-3.7406,0,0,-3.7364,-3.7365,0,0,0,0,0,0,0,0,-3.7252,-3.7258,-3.7301,-3.7301,-3.7301,-3.7326,-3.7324,-3.7365,-3.7321,-3.7313,-3.7317,-3.7315,-3.7344,-3.7347,-3.7357,-3.7407,-3.7409,-3.7364,-3.7366,-3.7367,-3.7368,0,0,0,0,0,0,0,-3.7249,-3.7256,-3.7322,-3.7302,-3.7302,-3.7295,-3.7299,-3.7332,-3.7337,-3.7314,-3.7312,-3.7317,-3.7343,-3.7355,-3.7358,-3.7409,-3.7364,-3.7367,-3.7369,-3.737,-3.7503,-3.7504,0,0,0,0,0,0,-3.7248,-3.7254,-3.7321,-3.7323,-3.7272,-3.7298,-3.7302,-3.732,-3.7337,-3.7338,-3.7318,-3.7315,-3.735,-3.7355,-3.7359,-3.742,-3.7367,-3.737,-3.7372,-3.7501,-3.7503,-3.7505,0,0,0,0,0,0,-3.7246,-3.7254,-3.7319,-3.7288,-3.7296,-3.7302,-3.7321,-3.7321,-3.7332,-3.734,-3.7341,-3.7329,-3.7349,-3.7355,-3.7395,-3.742,-3.7371,-3.7374,-3.7499,-3.7501,-3.7504,-3.7541,0,0,0,0,0,0,-3.7243,-3.7253,-3.7273,-3.7289,-3.7298,-3.7355,-3.7323,-3.7323,-3.7338,-3.7335,-3.735,-3.7351,-3.7348,-3.739,-3.7397,-3.7423,-3.7376,-3.7496,-3.75,-3.7503,-3.7537,-3.7544,-3.7551,0,0,0,0,0,-3.724,-3.7282,-3.7274,-3.7283,-3.7323,-3.7357,-3.7362,-3.7359,-3.734,-3.7359,-3.7364,-3.7351,-3.7416,-3.7395,-3.7402,-3.743,-3.7495,-3.7499,-3.7503,-3.7534,-3.7543,-3.755,0,0,0,0,0,0,-3.7268,-3.7283,-3.7276,-3.7323,-3.7339,-3.7353,-3.7377,-3.7368,-3.7388,-3.7384,-3.7379,-3.7382,-3.7424,-3.743,-3.7406,-3.7479,-3.7452,-3.7458,-3.7474,-3.7482,-3.7489,-3.7486,-3.7379,0,0,0,0,0,-3.728,-3.7307,-3.7319,-3.736,-3.7368,-3.7371,-3.7386,-3.7382,-3.7398,-3.7404,-3.7412,-3.7427,-3.7451,-3.7467,-3.7489,-3.7538,-3.7541,-3.756,-3.7567,-3.7572,-3.7578,-3.7604,-3.7613,-3.7518,-3.7518,-3.7518,0,0,-3.7304,-3.7316,-3.7334,-3.7366,-3.7377,-3.7405,-3.7377,-3.7407,-3.7428,-3.7408,-3.7447,-3.7453,-3.7469,-3.7514,-3.7534,-3.752,-3.7604,-3.7578,-3.7582,-3.7584,-3.7609,-3.7618,-3.7626,-3.7521,-3.752,-3.752,0,0,-3.7364,-3.7375,-3.7411,-3.7423,-3.7442,-3.7444,-3.7452,-3.7467,-3.7471,-3.751,-3.7496,-3.7519,-3.7561,-3.7573,-3.7584,-3.7648,-3.7636,-3.7656,-3.769,-3.7716,-3.7724,-3.773,-3.7754,-3.7762,-3.7661,-3.7661,-3.7661,0,-3.7392,-3.7434,-3.743,-3.7462,-3.7476,-3.7461,-3.7497,-3.7509,-3.7533,-3.7543,-3.7528,-3.758,-3.759,-3.7637,-3.7653,-3.7662,-3.7672,-3.7654,-3.7723,-3.773,-3.7736,-3.7758,-3.7767,-3.7663,-3.7663,-3.7662,-3.7662,0,-3.7467,-3.7497,-3.7523,-3.7548,-3.7566,-3.7599,-3.76,-3.7618,-3.7612,-3.7616,-3.7655,-3.7666,-3.7691,-3.7702,-3.7696,-3.7748,-3.774,-3.7724,-3.7697,-3.7747,-3.7768,-3.7776,-3.7666,-3.7665,-3.7665,-3.7664,0,0,-3.7545,-3.7569,-3.7578,-3.759,-3.7609,-3.7631,-3.7664,-3.7689,-3.7704,-3.7721,-3.7748,-3.7784,-3.7769,-3.7783,-3.7778,-3.7801,-3.7852,-3.7783,-3.7783,-3.7795,-3.791,-3.7922,-3.7932,-3.7843,-3.7845,-3.7846,-3.7909,0,-3.7606,-3.7664,-3.7662,-3.7716,-3.7743,-3.7729,-3.7757,-3.7772,-3.7775,-3.7798,-3.7802,-3.7827,-3.7806,-3.7814,-3.7836,-3.7841,-3.7874,-3.7836,-3.7868,-3.787,-3.7866,-3.7943,-3.7956,-3.8014,-3.7917,-3.7918,-3.7919,0,-3.7685,-3.7706,-3.7763,-3.7779,-3.779,-3.7815,-3.7838,-3.786,-3.7876,-3.7877,-3.7892,-3.7884,-3.7917,-3.7888,-3.7933,-3.7907,-3.7919,-3.7924,-3.7926,-3.7929,-3.7898,-3.7949,-3.8032,-3.8041,-3.7931,-3.793,-3.793,0,-3.7737,-3.7779,-3.7819,-3.7829,-3.7848,-3.7866,-3.7875,-3.7889,-3.7904,-3.7924,-3.7934,-3.7956,-3.7969,-3.7986,-3.7984,-3.7964,-3.8029,-3.8001,-3.8031,-3.8031,-3.8046,-3.8045,-3.8134,-3.8053,-3.8053,-3.8053,-3.8053,0,-3.7805,-3.7841,-3.7843,-3.7867,-3.7907,-3.7903,-3.7942,-3.7948,-3.7961,-3.7986,-3.7974,-3.7998,-3.7994,-3.8017,-3.8015,-3.8052,-3.8058,-3.8059,-3.8059,-3.8061,-3.8061,-3.807,-3.8066,-3.8055,-3.8055,-3.8054,-3.8054,0,-3.787,-3.7873,-3.7916,-3.793,-3.7935,-3.7963,-3.7975,-3.7998,-3.8001,-3.8033,-3.804,-3.8044,-3.8071,-3.8071,-3.8101,-3.81,-3.8145,-3.8139,-3.814,-3.8139,-3.817,-3.8167,-3.8268,-3.8281,-3.8191,-3.8192,-3.8193,0,-3.7914,-3.7941,-3.7959,-3.7976,-3.7986,-3.8012,-3.8028,-3.8025,-3.8042,-3.8062,-3.8083,-3.8108,-3.8129,-3.8172,-3.8178,-3.82,-3.8196,-3.8229,-3.8199,-3.82,-3.8197,-3.8195,-3.8198,-3.8235,-3.8236,-3.8237,-3.8238,0,-3.7992,-3.7992,-3.8016,-3.8041,-3.806,-3.8079,-3.8096,-3.811,-3.8109,-3.8128,-3.8156,-3.8172,-3.8204,-3.8229,-3.8252,-3.8259,-3.8248,-3.8247,-3.8255,-3.8258,-3.8258,-3.8259,-3.8157,-3.8245,-3.8244,-3.8244,-3.8243,-3.8243,-3.8048,-3.8072,-3.8088,-3.8115,-3.8128,-3.8145,-3.8167,-3.8173,-3.8197,-3.8223,-3.8219,-3.8251,-3.8265,-3.8294,-3.8304,-3.8327,-3.8315,-3.8327,-3.833,-3.8333,-3.8337,-3.8254,-3.8331,-3.8331,-3.8331,-3.833,-3.833,0,-3.8126,-3.8136,-3.8161,-3.8186,-3.8207,-3.8196,-3.8214,-3.8233,-3.826,-3.8275,-3.8296,-3.8328,-3.8353,-3.836,-3.8384,-3.8402,-3.8397,-3.8408,-3.8407,-3.8409,-3.8346,-3.8337,-3.8411,-3.8411,-3.8411,-3.8411,-3.8411,-3.8411,-3.8169,-3.8209,-3.8211,-3.8256,-3.8266,-3.8297,-3.8309,-3.8324,-3.8336,-3.8372,-3.8393,-3.8398,-3.841,-3.8435,-3.8457,-3.8458,-3.8468,-3.8481,-3.848,-3.8421,-3.8413,-3.8406,-3.8397,-3.8483,-3.8483,-3.8541,-3.8541,-3.8542]}]]